St. Charles, IL

6:56 PM CDT on April 28, 2017 (GMT -0500)
Saint Charles County Smartt

Weather History for KSET - March, 2012

Change the Weather History Date:

Thursday, March 15, 2012

  Actual Average (KSTL) Record (KSTL)
Temperature  
Mean Temperature 68 °F -  
Max Temperature 82 °F 54 °F 82 °F (2016)
Min Temperature 55 °F 34 °F 9 °F (1890)
Cooling Degree Days 4    
Growing Degree Days 18 (Base 50)    
Moisture  
Dew Point 58 °F    
Average Humidity 70    
Maximum Humidity 87    
Minimum Humidity 45    
Precipitation  
Precipitation 0.37 in - - ()
Sea Level Pressure  
Sea Level Pressure 30.04 in    
Wind  
Wind Speed 10 mph (SSW)    
Max Wind Speed 22 mph    
Max Gust Speed 32 mph    
Visibility 9 miles    
Events Rain , Thunderstorm    
Averages and records for this station are not official NWS values.
T = Trace of Precipitation, MM = Missing Value Source: NWS Daily Summary

Daily Weather History Graph

Daily Weather History Graph

Search for Another Location

Airport or City:

Trip Planner

Search our weather history database for the weather conditions in past years. The results will help you decide how hot, cold, wet, or windy it might be!

Date:

Astronomy

Mar. 15, 2012 Rise Set
Actual Time 7:12 AM CDT 7:09 PM CDT
Civil Twilight 6:45 AM CDT 7:35 PM CDT
Nautical Twilight 6:14 AM CDT 8:06 PM CDT
Astronomical Twilight 5:43 AM CDT 8:38 PM CDT
Moon 2:36 AM CDT (3/15) 12:29 PM CDT (3/15)
Length of Visible Light 12h 50m
Length of Day
11h 57m
Last Quarter, 43% of the Moon is Illuminated
Mar 15
Last Quarter
Mar 22
New
Mar 30
First Quarter
Apr 6
Full
Apr 13
Last Quarter

Hourly Weather History & Observations

Time (CDT) Temp. Heat Index Dew Point Humidity Pressure Visibility Wind Dir Wind Speed Gust Speed Precip Events Conditions
12:54 AM 66.0 °F - 57.9 °F 75% 30.00 in 10.0 mi SSW 9.2 mph - N/A   Clear
1:54 AM 69.1 °F - 55.9 °F 63% 30.01 in 10.0 mi SW 10.4 mph - N/A   Clear
2:54 AM 69.1 °F - 55.9 °F 63% 30.03 in 10.0 mi WSW 9.2 mph - N/A   Clear
3:54 AM 62.1 °F - 55.0 °F 78% 30.03 in 10.0 mi SSW 9.2 mph - N/A   Clear
4:54 AM 61.0 °F - 54.0 °F 78% 30.03 in 10.0 mi SW 10.4 mph - N/A   Clear
5:54 AM 61.0 °F - 54.0 °F 78% 30.05 in 10.0 mi Calm Calm - N/A   Clear
6:54 AM 55.0 °F - 51.1 °F 86% 30.07 in 10.0 mi Calm Calm - N/A   Clear
7:54 AM 59.0 °F - 55.0 °F 87% 30.08 in 10.0 mi Calm Calm - N/A   Clear
8:54 AM 66.9 °F - 57.9 °F 73% 30.08 in 10.0 mi Calm Calm - N/A   Scattered Clouds
9:54 AM 72.0 °F - 59.0 °F 64% 30.08 in 10.0 mi SSW 6.9 mph - N/A   Clear
10:54 AM 75.9 °F - 60.1 °F 58% 30.07 in 10.0 mi SW 10.4 mph - N/A   Mostly Cloudy
11:54 AM 77.0 °F - 60.1 °F 56% 30.06 in 10.0 mi WSW 9.2 mph - N/A   Scattered Clouds
12:54 PM 79.0 °F - 61.0 °F 54% 30.04 in 10.0 mi SSW 11.5 mph - N/A   Clear
1:54 PM 81.0 °F 81.6 °F 60.1 °F 49% 30.02 in 10.0 mi SW 10.4 mph 17.3 mph N/A   Scattered Clouds
2:54 PM 82.0 °F 82.1 °F 59.0 °F 45% 29.99 in 10.0 mi SSW 10.4 mph 17.3 mph N/A   Scattered Clouds
3:54 PM 77.0 °F - 61.0 °F 58% 29.99 in 10.0 mi South 12.7 mph - N/A   Mostly Cloudy
4:24 PM 75.2 °F - 62.6 °F 65% 30.00 in 10.0 mi SSE 17.3 mph - N/A Thunderstorm Partly Cloudy
4:39 PM 73.4 °F - 62.6 °F 69% 29.98 in 10.0 mi SSE 15.0 mph - N/A Thunderstorm Mostly Cloudy
4:54 PM 73.9 °F - 62.1 °F 66% 29.99 in 10.0 mi South 12.7 mph - N/A Thunderstorm Scattered Clouds
5:33 PM 69.8 °F - 64.4 °F 83% 29.98 in 4.0 mi South 17.3 mph - 0.12 in Rain Rain
5:54 PM 70.0 °F - 64.0 °F 81% 29.98 in 10.0 mi South 20.7 mph 25.3 mph 0.12 in Rain , Thunderstorm Light Rain
6:54 PM 68.0 °F - 57.0 °F 68% 30.03 in 10.0 mi SW 21.9 mph 32.2 mph 0.04 in Rain Light Rain
7:47 PM 64.4 °F - 55.4 °F 73% 30.11 in 6.0 mi WSW 15.0 mph - 0.10 in Rain , Thunderstorm Rain
7:54 PM 66.0 °F - 55.0 °F 68% 30.11 in 5.0 mi SW 10.4 mph - 0.13 in Rain , Thunderstorm Rain
8:07 PM 62.6 °F - 57.2 °F 82% 30.11 in 7.0 mi South 15.0 mph - 0.03 in Rain Light Rain
8:21 PM 62.6 °F - 55.4 °F 77% 30.11 in 9.0 mi South 16.1 mph - 0.05 in Rain Light Rain
8:54 PM 64.9 °F - 54.0 °F 68% 30.03 in 10.0 mi SE 17.3 mph - 0.07 in Rain Light Rain
9:14 PM 64.4 °F - 53.6 °F 68% 30.05 in 10.0 mi SSE 16.1 mph - 0.00 in   Scattered Clouds
9:54 PM 62.1 °F - 55.0 °F 78% 30.02 in 10.0 mi East 6.9 mph - 0.00 in   Clear
10:54 PM 62.1 °F - 54.0 °F 75% 30.02 in 10.0 mi West 11.5 mph - N/A   Clear
11:54 PM 62.1 °F - 55.9 °F 80% 30.04 in 10.0 mi WSW 6.9 mph - 0.01 in Rain Light Rain